Content
SEND FEEDBACK

Daily
Averages
Monthly
Summary
French Polynesia

FAAA, FRENCH POLYNESIA


Home > Oceania > French Polynesia
Elevation: 7 feet     Latitude: 17 33S     Longitude: 149 37W

WEATHER
 
SELECT A DAY
Number of Records: 208,245;   Date Range: 6/30/96 - 7/28/14
 
SHARE

PRINT THIS DATA

[ ← Previous Day ]
WEATHER ALMANAC - SEPTEMBER 18, 2013
[ Next Day → ]
[ °C ]   °F
Weather ElementAverageHighLow
Temperature77.8 °F84.2 °F (12:30 pm)71.6 °F (3:00 am)
Dewpoint66.6 °F70 °F (2:00 pm)64.4 °F (3:00 am)
Humidity67.8 %83 % (4:30 am)49 % (11:00 am)
Barometer29.95 in30.01 in (8:30 am)29.89 in (2:30 pm)
Wind Speed4.7 mph17.9 mph (2:00 pm)
Weather ElementAverage
Visibility7.6 mi
Wind DirectionSE (140.4 °)

Weather ElementTotal
Precipitation---
Cooling Degree Days12.9 (Base 65)
Growing Degree Days27.9 (Base 50)
Averaged from 56 records on September 18, 2013
WEATHER CONDITIONS BREAKOUT
WIND DIRECTION BREAKOUT
WEATHER BY HOUR - SEPTEMBER 18, 2013
[ °C ]   °F
Local TimeTemperatureDewpointHumidityBarometerVisibilityWind DirectionWind SpeedGust SpeedPrecipitationEventsConditions
12:30 AM73.4 °F66.2 °F78 %29.98 in6.2 miESE (110°)2.3 mphMostly Cloudy
1:00 AM73.4 °F66.2 °F78 %29.95 in6.2 miSSE (160°)3.5 mphMostly Cloudy
1:30 AM73.4 °F66.2 °F78 %29.95 in6.2 miSSE (160°)4.6 mphPartly Cloudy
2:00 AM73.0 °F66.0 °F73 %29.94 in12.0 miSouth (170°)5.8 mphScattered Clouds
2:00 AM73.4 °F66.2 °F78 %29.92 in6.2 miSouth (170°)5.8 mphPartly Cloudy
2:30 AM73.4 °F66.2 °F78 %29.92 in6.2 miSSE (160°)3.5 mphPartly Cloudy
3:00 AM71.6 °F64.4 °F78 %29.92 in6.2 miENE (70°)3.5 mphPartly Cloudy
3:30 AM71.6 °F64.4 °F78 %29.92 in6.2 miVariable3.5 mph
4:00 AM71.6 °F64.4 °F78 %29.92 in6.2 miEast (90°)3.5 mph
4:30 AM71.6 °F66.2 °F83 %29.95 in6.2 miSSE (160°)4.6 mphScattered Clouds
5:00 AM72.0 °F66.0 °F77 %29.96 in28.0 miSSE (160°)11.2 mphClear
5:00 AM71.6 °F66.2 °F83 %29.95 in6.2 miSSE (160°)5.8 mphScattered Clouds
5:30 AM71.6 °F66.2 °F83 %29.95 in6.2 miVariable2.3 mphPartly Cloudy
6:00 AM71.6 °F66.2 °F83 %29.98 in6.2 miSE (130°)3.5 mphPartly Cloudy
6:30 AM71.6 °F66.2 °F83 %29.98 in6.2 miCalmPartly Cloudy
7:00 AM73.4 °F66.2 °F78 %29.98 in6.2 miCalmPartly Cloudy
7:30 AM77.0 °F66.2 °F69 %29.98 in6.2 miVariable3.5 mphPartly Cloudy
8:00 AM78.0 °F66.0 °F59 %30.00 in16.0 miNorth (10°)6.7 mphPartly Cloudy
8:00 AM78.8 °F66.2 °F65 %29.98 in6.2 miNorth (10°)3.5 mphPartly Cloudy
8:30 AM78.8 °F68.0 °F69 %30.01 in6.2 miNorth (350°)4.6 mphScattered Clouds
9:00 AM80.6 °F68.0 °F65 %30.01 in6.2 miWNW (290°)3.5 mphScattered Clouds
9:30 AM80.6 °F66.2 °F61 %30.01 in6.2 miVariable2.3 mphPartly Cloudy
10:00 AM82.4 °F64.4 °F54 %30.01 in6.2 miWSW (250°)2.3 mphScattered Clouds
10:30 AM82.4 °F66.2 °F58 %29.98 in6.2 miWest (260°)3.5 mphScattered Clouds
11:00 AM83.0 °F67.0 °F49 %29.99 in16.0 miSW (230°)15.7 mphScattered Clouds
11:00 AM82.4 °F66.2 °F58 %29.98 in6.2 miSW (230°)8.1 mphScattered Clouds
11:30 AM82.4 °F68.0 °F62 %29.98 in6.2 miSW (230°)8.1 mphMostly Cloudy
12:00 PM82.4 °F68.0 °F62 %29.95 in6.2 miSW (230°)9.2 mphMostly Cloudy
12:30 PM84.2 °F68.0 °F58 %29.95 in6.2 miWSW (250°)8.1 mphMostly Cloudy
1:00 PM84.2 °F68.0 °F58 %29.92 in6.2 miWSW (240°)9.2 mphScattered Clouds
1:30 PM82.4 °F68.0 °F62 %29.92 in6.2 miWest (260°)9.2 mphScattered Clouds
2:00 PM83.0 °F70.0 °F56 %29.92 in16.0 miWest (270°)17.9 mphScattered Clouds
2:00 PM82.4 °F69.8 °F66 %29.92 in6.2 miWest (270°)9.2 mphMostly Cloudy
2:30 PM82.4 °F69.8 °F66 %29.89 in6.2 miWest (270°)8.1 mphMostly Cloudy
3:05 PM82.4 °F68.0 °F62 %29.89 in6.2 miWest (270°)5.8 mphMostly Cloudy
3:30 PM84.2 °F68.0 °F58 %29.89 in6.2 miVariable3.5 mphMostly Cloudy
4:00 PM82.4 °F66.2 °F58 %29.89 in6.2 miVariable2.3 mphMostly Cloudy
4:06 PM82.4 °F66.2 °F58 %29.89 in6.2 miSW (230°)4.6 mphMostly Cloudy
4:30 PM82.4 °F66.2 °F58 %29.89 in6.2 miSW (220°)5.8 mphMostly Cloudy
5:00 PM82.0 °F67.0 °F51 %29.90 in16.0 miWSW (250°)8.9 mphScattered Clouds
5:00 PM82.4 °F66.2 °F58 %29.89 in6.2 miWSW (250°)4.6 mphMostly Cloudy
5:30 PM80.6 °F66.2 °F61 %29.89 in6.2 miSSW (210°)5.8 mphMostly Cloudy
6:00 PM78.8 °F66.2 °F65 %29.92 in6.2 miSSW (200°)5.8 mphMostly Cloudy
6:30 PM78.8 °F66.2 °F65 %29.92 in6.2 miSouth (190°)3.5 mphMostly Cloudy
7:00 PM78.8 °F66.2 °F65 %29.92 in6.2 miVariable2.3 mphMostly Cloudy
7:30 PM78.8 °F66.2 °F65 %29.95 in6.2 miVariable1.2 mphMostly Cloudy
8:00 PM77.0 °F66.0 °F60 %29.96 in12.0 miCalmScattered Clouds
8:00 PM77.0 °F66.2 °F69 %29.95 in6.2 miCalmScattered Clouds
8:30 PM77.0 °F66.2 °F69 %29.98 in6.2 miENE (60°)3.5 mphScattered Clouds
9:00 PM75.2 °F66.2 °F73 %29.98 in6.2 miCalmScattered Clouds
9:30 PM75.2 °F66.2 °F73 %29.98 in6.2 miENE (70°)2.3 mphPartly Cloudy
10:00 PM75.2 °F66.2 °F73 %29.98 in6.2 miESE (110°)2.3 mphPartly Cloudy
10:30 PM75.2 °F66.2 °F73 %29.98 in6.2 miVariable3.5 mphPartly Cloudy
11:00 PM74.0 °F66.0 °F68 %29.99 in12.0 miCalmScattered Clouds
11:00 PM75.2 °F66.2 °F73 %29.98 in6.2 miCalmPartly Cloudy
11:30 PM73.4 °F66.2 °F78 %29.98 in6.2 miSouth (170°)1.2 mphPartly Cloudy
Hourly data recorded from NTAA, located miles away from Faaa, French Polynesia







STORIES FROM OUR PARTNERS